STARLINK-32236 (60418 NORAD) Tracking and Keplerian Element Data

This shows tracking and keplerian element data for the satellite.

Feedback or suggestion? Click here.




ElementValue
Catalog60418
NameSTARLINK-32236
Epoch Orbit1105
Epoch Day286.78844703
Epoch Year2024
RAAN104.9259
Inclination53.1623
Eccentricity0.0001057
Argument of Perigee71.56
Mean Anonmoly288.5516
Mean Motion15.30214029
Decay Rate4.752E-05
L11 60418U 24141W 24286.78844703 .00004752 00000+0 17238-3 0 9995
L22 60418 53.1623 104.9259 0001057 71.5600 288.5516 15.30214029 11052



Live tracking and technical data element details for STARLINK-32236 (NORAD 60418). STARLINK-32236 can be tracked NOW for your location showing map with azimuth and elevation plus other details from your city location.







IsCatalogInMostPopularTable: catalog: 60418, numindb: 9
Update: records affected: 1



GetName: 60418 STARLINK-32236

Hit Count: updated at: Wed, 04 Dec 2024 17:23:51 GMT